Time,TemperatureF,DewpointF,PressureIn,WindDirection,WindDirectionDegrees,WindSpeedMPH,WindSpeedGustMPH,Humidity,HourlyPrecipIn,Conditions,Clouds,dailyrainin,SoftwareType,DateUTC
2013-02-21 00:00:00,19.3,13.4,29.66,WNW,293,0.4,0.7,78,0.00,,,0.00,WUHU216HW,2013-02-21 07:00:00,
2013-02-21 00:05:00,19.1,13.2,29.66,WNW,293,0.4,0.4,78,0.00,,,0.00,WUHU216HW,2013-02-21 07:05:00,
2013-02-21 00:10:00,19.1,13.2,29.66,West,270,0.4,0.4,78,0.00,,,0.00,WUHU216HW,2013-02-21 07:10:00,
2013-02-21 00:15:00,19.1,13.2,29.66,WNW,293,0.0,0.9,78,0.00,,,0.00,WUHU216HW,2013-02-21 07:15:00,
2013-02-21 00:20:00,18.9,13.1,29.66,WNW,293,0.0,0.9,78,0.00,,,0.00,WUHU216HW,2013-02-21 07:20:00,
2013-02-21 00:25:00,19.1,13.2,29.66,West,270,0.2,0.7,78,0.00,,,0.00,WUHU216HW,2013-02-21 07:25:00,
2013-02-21 00:30:00,18.9,13.1,29.66,West,270,0.0,0.4,78,0.00,,,0.00,WUHU216HW,2013-02-21 07:30:00,
2013-02-21 00:35:00,18.9,13.1,29.66,NW,315,0.4,0.4,78,0.00,,,0.00,WUHU216HW,2013-02-21 07:35:00,
2013-02-21 00:40:00,18.9,13.1,29.66,NW,315,0.0,0.4,78,0.00,,,0.00,WUHU216HW,2013-02-21 07:40:00,
2013-02-21 00:45:00,18.9,13.1,29.66,WNW,293,0.0,0.4,78,0.00,,,0.00,WUHU216HW,2013-02-21 07:45:00,
2013-02-21 00:50:00,18.7,12.9,29.66,WNW,293,0.0,0.4,78,0.00,,,0.00,WUHU216HW,2013-02-21 07:50:00,
2013-02-21 00:55:00,18.7,13.2,29.66,West,270,0.4,0.4,79,0.00,,,0.00,WUHU216HW,2013-02-21 07:55:00,
2013-02-21 01:00:00,18.7,13.2,29.66,West,270,0.2,0.4,79,0.00,,,0.00,WUHU216HW,2013-02-21 08:00:00,
2013-02-21 01:05:00,18.5,13.1,29.66,NNW,338,0.2,0.4,79,0.00,,,0.00,WUHU216HW,2013-02-21 08:05:00,
2013-02-21 01:10:00,18.4,12.9,29.66,WNW,293,0.2,0.7,79,0.00,,,0.00,WUHU216HW,2013-02-21 08:10:00,
2013-02-21 01:15:00,18.4,12.9,29.66,WNW,293,0.0,0.7,79,0.00,,,0.00,WUHU216HW,2013-02-21 08:15:00,
2013-02-21 01:20:00,18.4,12.9,29.67,WNW,293,0.0,0.4,79,0.00,,,0.00,WUHU216HW,2013-02-21 08:20:00,
2013-02-21 01:25:00,18.4,12.9,29.66,West,270,0.4,0.4,79,0.00,,,0.00,WUHU216HW,2013-02-21 08:25:00,
2013-02-21 01:30:00,18.4,12.9,29.66,West,270,0.2,0.4,79,0.00,,,0.00,WUHU216HW,2013-02-21 08:30:00,
2013-02-21 01:35:00,18.4,12.9,29.66,WNW,293,0.0,0.7,79,0.00,,,0.00,WUHU216HW,2013-02-21 08:35:00,
2013-02-21 01:40:00,18.4,12.9,29.66,West,270,0.4,0.7,79,0.00,,,0.00,WUHU216HW,2013-02-21 08:40:00,
2013-02-21 01:43:00,18.2,12.7,29.66,West,270,0.4,0.7,79,0.00,,,0.00,WUHU216HW,2013-02-21 08:43:00,
2013-02-21 01:44:00,18.2,12.7,29.66,West,270,0.4,0.7,79,0.00,,,0.00,WUHU216HW,2013-02-21 08:44:00,
2013-02-21 01:45:00,18.2,12.7,29.66,West,270,0.2,0.7,79,0.00,,,0.00,WUHU216HW,2013-02-21 08:45:00,
2013-02-21 01:46:00,18.2,12.7,29.66,West,270,0.2,0.7,79,0.00,,,0.00,WUHU216HW,2013-02-21 08:46:00,
2013-02-21 01:47:00,18.2,12.7,29.66,West,270,0.2,0.7,79,0.00,,,0.00,WUHU216HW,2013-02-21 08:47:00,
2013-02-21 01:48:00,18.2,12.7,29.66,WNW,293,0.4,0.4,79,0.00,,,0.00,WUHU216HW,2013-02-21 08:48:00,
2013-02-21 01:49:00,18.0,12.5,29.67,NW,315,0.4,0.4,79,0.00,,,0.00,WUHU216HW,2013-02-21 08:49:00,
2013-02-21 01:50:00,18.2,12.7,29.67,NW,315,0.2,0.4,79,0.00,,,0.00,WUHU216HW,2013-02-21 08:50:00,
2013-02-21 01:51:00,18.2,12.7,29.66,WNW,293,0.2,0.4,79,0.00,,,0.00,WUHU216HW,2013-02-21 08:51:00,
2013-02-21 01:52:00,18.0,12.5,29.67,WNW,293,0.0,0.4,79,0.00,,,0.00,WUHU216HW,2013-02-21 08:52:00,
2013-02-21 01:53:00,18.0,12.5,29.66,West,270,0.0,0.4,79,0.00,,,0.00,WUHU216HW,2013-02-21 08:53:00,
2013-02-21 13:37:00,29.3,20.1,29.67,West,270,1.8,1.8,68,0.00,,,0.00,WUHU216HW,2013-02-21 20:37:00,
2013-02-21 13:42:00,29.5,20.3,29.67,SW,225,0.7,1.8,68,0.00,,,0.00,WUHU216HW,2013-02-21 20:42:00,
2013-02-21 13:47:00,29.5,19.9,29.66,SSE,158,1.1,2.9,67,0.00,,,0.00,WUHU216HW,2013-02-21 20:47:00,
2013-02-21 13:52:00,29.3,20.1,29.66,SSE,158,3.4,3.4,68,0.00,,,0.00,WUHU216HW,2013-02-21 20:52:00,
2013-02-21 13:57:00,29.3,20.1,29.66,SE,135,0.4,3.4,68,0.00,,,0.00,WUHU216HW,2013-02-21 20:57:00,
2013-02-21 14:02:00,29.5,20.3,29.66,East,90,1.1,1.3,68,0.00,,,0.00,WUHU216HW,2013-02-21 21:02:00,
2013-02-21 14:07:00,29.2,20.3,29.66,NE,45,0.4,3.6,69,0.00,,,0.00,WUHU216HW,2013-02-21 21:07:00,
2013-02-21 14:12:00,29.2,20.3,29.66,NW,315,0.0,3.6,69,0.00,,,0.00,WUHU216HW,2013-02-21 21:12:00,
2013-02-21 14:17:00,29.3,20.4,29.66,North,0,0.9,2.9,69,0.00,,,0.00,WUHU216HW,2013-02-21 21:17:00,
2013-02-21 14:22:00,29.3,20.4,29.66,East,90,1.8,1.8,69,0.00,,,0.00,WUHU216HW,2013-02-21 21:22:00,
2013-02-21 14:27:00,29.2,20.3,29.66,SSE,158,0.0,1.8,69,0.00,,,0.00,WUHU216HW,2013-02-21 21:27:00,
2013-02-21 14:32:00,29.3,20.8,29.66,SE,135,0.0,1.8,70,0.00,,,0.00,WUHU216HW,2013-02-21 21:32:00,
2013-02-21 14:37:00,29.2,20.6,29.65,West,270,0.4,4.0,70,0.00,,,0.00,WUHU216HW,2013-02-21 21:37:00,
2013-02-21 14:42:00,29.0,21.1,29.65,NW,315,0.7,4.0,72,0.00,,,0.00,WUHU216HW,2013-02-21 21:42:00,
2013-02-21 14:47:00,28.6,21.1,29.65,East,90,2.0,3.6,73,0.00,,,0.00,WUHU216HW,2013-02-21 21:47:00,
2013-02-21 14:52:00,28.4,20.9,29.65,SSW,203,0.4,3.6,73,0.00,,,0.00,WUHU216HW,2013-02-21 21:52:00,
2013-02-21 14:57:00,28.4,21.3,29.65,ENE,68,1.8,2.5,74,0.00,,,0.00,WUHU216HW,2013-02-21 21:57:00,
2013-02-21 15:02:00,28.3,21.3,29.65,NW,315,0.9,1.8,75,0.00,,,0.00,WUHU216HW,2013-02-21 22:02:00,
2013-02-21 15:07:00,27.7,21.1,29.65,NNW,338,1.1,2.0,76,0.00,,,0.00,WUHU216HW,2013-02-21 22:07:00,
2013-02-21 15:12:00,27.7,20.8,29.65,SW,225,0.2,2.0,75,0.00,,,0.00,WUHU216HW,2013-02-21 22:12:00,
2013-02-21 15:17:00,27.7,20.8,29.65,NE,45,2.0,2.0,75,0.00,,,0.00,WUHU216HW,2013-02-21 22:17:00,
2013-02-21 15:22:00,27.7,20.8,29.65,NNE,23,0.7,2.0,75,0.00,,,0.00,WUHU216HW,2013-02-21 22:22:00,
2013-02-21 15:27:00,27.9,21.0,29.65,East,90,0.2,0.7,75,0.00,,,0.00,WUHU216HW,2013-02-21 22:27:00,
2013-02-21 15:32:00,28.3,21.3,29.65,North,0,1.1,1.1,75,0.00,,,0.00,WUHU216HW,2013-02-21 22:32:00,
2013-02-21 15:37:00,28.1,21.2,29.65,NE,45,0.0,1.1,75,0.00,,,0.00,WUHU216HW,2013-02-21 22:37:00,
2013-02-21 15:42:00,28.3,21.3,29.65,NE,45,0.0,1.1,75,0.00,,,0.00,WUHU216HW,2013-02-21 22:42:00,
2013-02-21 15:47:00,28.3,21.3,29.65,SSE,158,0.4,2.2,75,0.00,,,0.00,WUHU216HW,2013-02-21 22:47:00,
2013-02-21 15:52:00,28.1,21.2,29.65,East,90,0.2,2.2,75,0.00,,,0.00,WUHU216HW,2013-02-21 22:52:00,
2013-02-21 15:57:00,27.9,21.0,29.65,SSE,158,0.0,1.1,75,0.00,,,0.00,WUHU216HW,2013-02-21 22:57:00,
2013-02-21 16:02:00,27.9,21.0,29.65,NE,45,0.4,0.9,75,0.00,,,0.00,WUHU216HW,2013-02-21 23:02:00,
2013-02-21 16:07:00,27.7,20.8,29.65,NE,45,0.0,0.4,75,0.00,,,0.00,WUHU216HW,2013-02-21 23:07:00,
2013-02-21 16:12:00,27.7,20.8,29.65,NE,45,0.0,0.2,75,0.00,,,0.00,WUHU216HW,2013-02-21 23:12:00,
2013-02-21 16:17:00,27.7,21.1,29.65,NE,45,0.0,0.2,76,0.00,,,0.00,WUHU216HW,2013-02-21 23:17:00,
2013-02-21 16:22:00,27.7,21.1,29.65,NNE,23,0.0,0.4,76,0.00,,,0.00,WUHU216HW,2013-02-21 23:22:00,
2013-02-21 16:27:00,27.5,20.9,29.65,NNE,23,0.0,0.4,76,0.00,,,0.00,WUHU216HW,2013-02-21 23:27:00,
2013-02-21 16:32:00,27.5,20.9,29.65,NNE,23,0.0,0.0,76,0.00,,,0.00,WUHU216HW,2013-02-21 23:32:00,
2013-02-21 16:37:00,27.5,20.9,29.65,NNE,23,0.0,0.0,76,0.00,,,0.00,WUHU216HW,2013-02-21 23:37:00,
2013-02-21 16:42:00,27.7,21.1,29.65,SSE,158,0.0,0.4,76,0.00,,,0.00,WUHU216HW,2013-02-21 23:42:00,
2013-02-21 16:47:00,27.7,21.1,29.65,South,180,0.2,1.1,76,0.00,,,0.00,WUHU216HW,2013-02-21 23:47:00,
2013-02-21 16:52:00,27.5,21.3,29.65,NNE,23,0.0,1.1,77,0.00,,,0.00,WUHU216HW,2013-02-21 23:52:00,
2013-02-21 16:57:00,27.5,21.3,29.65,NE,45,0.9,0.9,77,0.00,,,0.00,WUHU216HW,2013-02-21 23:57:00,
2013-02-21 17:02:00,27.4,21.1,29.64,South,180,0.0,0.9,77,0.00,,,0.00,WUHU216HW,2013-02-22 00:02:00,
2013-02-21 17:07:00,27.4,21.1,29.64,SE,135,0.0,0.4,77,0.00,,,0.00,WUHU216HW,2013-02-22 00:07:00,
2013-02-21 17:12:00,27.2,20.9,29.64,ESE,113,0.0,1.1,77,0.00,,,0.00,WUHU216HW,2013-02-22 00:12:00,
2013-02-21 17:17:00,27.2,20.9,29.64,SSE,158,0.0,1.1,77,0.00,,,0.00,WUHU216HW,2013-02-22 00:17:00,
2013-02-21 17:22:00,27.0,20.3,29.64,SW,225,1.1,1.1,76,0.00,,,0.00,WUHU216HW,2013-02-22 00:22:00,
2013-02-21 17:27:00,27.0,20.7,29.64,SSW,203,0.2,1.1,77,0.00,,,0.00,WUHU216HW,2013-02-22 00:27:00,
2013-02-21 17:32:00,27.0,20.7,29.64,SE,135,0.2,1.1,77,0.00,,,0.00,WUHU216HW,2013-02-22 00:32:00,
2013-02-21 17:37:00,26.6,20.4,29.64,South,180,0.2,1.8,77,0.00,,,0.00,WUHU216HW,2013-02-22 00:37:00,
2013-02-21 17:42:00,26.6,20.4,29.64,South,180,1.3,1.8,77,0.00,,,0.00,WUHU216HW,2013-02-22 00:42:00,
2013-02-21 17:47:00,26.5,20.2,29.64,ESE,113,1.8,1.8,77,0.00,,,0.00,WUHU216HW,2013-02-22 00:47:00,
2013-02-21 17:52:00,26.5,20.2,29.64,SSE,158,0.7,2.0,77,0.00,,,0.00,WUHU216HW,2013-02-22 00:52:00,
2013-02-21 17:57:00,26.5,20.2,29.64,SE,135,0.0,2.0,77,0.00,,,0.00,WUHU216HW,2013-02-22 00:57:00,
2013-02-21 18:02:00,26.5,20.2,29.64,South,180,0.0,1.3,77,0.00,,,0.00,WUHU216HW,2013-02-22 01:02:00,
2013-02-21 18:07:00,26.5,20.2,29.64,West,270,0.0,0.4,77,0.00,,,0.00,WUHU216HW,2013-02-22 01:07:00,
2013-02-21 18:12:00,26.5,20.2,29.64,SSW,203,0.0,0.4,77,0.00,,,0.00,WUHU216HW,2013-02-22 01:12:00,
2013-02-21 18:17:00,26.5,20.2,29.64,SE,135,0.0,0.0,77,0.00,,,0.00,WUHU216HW,2013-02-22 01:17:00,
2013-02-21 18:22:00,26.5,20.2,29.64,SE,135,0.0,0.4,77,0.00,,,0.00,WUHU216HW,2013-02-22 01:22:00,
2013-02-21 18:27:00,26.5,20.2,29.64,NNE,23,0.0,0.4,77,0.00,,,0.00,WUHU216HW,2013-02-22 01:27:00,
2013-02-21 18:32:00,26.5,20.2,29.64,NNE,23,0.4,0.4,77,0.00,,,0.00,WUHU216HW,2013-02-22 01:32:00,
2013-02-21 18:37:00,26.3,20.0,29.64,NNE,23,0.0,0.9,77,0.00,,,0.00,WUHU216HW,2013-02-22 01:37:00,
2013-02-21 18:42:00,26.3,19.1,29.64,North,0,0.4,0.9,74,0.00,,,0.00,WUHU216HW,2013-02-22 01:42:00,
2013-02-21 18:47:00,26.3,20.0,29.64,North,0,0.4,0.9,77,0.00,,,0.00,WUHU216HW,2013-02-22 01:47:00,
2013-02-21 18:52:00,26.3,20.0,29.64,NNE,23,0.0,1.1,77,0.00,,,0.00,WUHU216HW,2013-02-22 01:52:00,
2013-02-21 18:57:00,26.3,20.0,29.64,NE,45,0.7,1.1,77,0.00,,,0.00,WUHU216HW,2013-02-22 01:57:00,
2013-02-21 19:02:00,26.3,20.0,29.64,NE,45,0.0,0.7,77,0.00,,,0.00,WUHU216HW,2013-02-22 02:02:00,
2013-02-21 19:07:00,26.3,19.4,29.64,North,0,0.2,0.7,75,0.00,,,0.00,WUHU216HW,2013-02-22 02:07:00,
2013-02-21 19:12:00,26.1,19.5,29.65,North,0,2.7,2.7,76,0.00,,,0.00,WUHU216HW,2013-02-22 02:12:00,
2013-02-21 19:17:00,26.1,19.5,29.64,NNE,23,0.0,2.7,76,0.00,,,0.00,WUHU216HW,2013-02-22 02:17:00,
2013-02-21 19:22:00,26.1,19.5,29.64,NNE,23,0.0,0.4,76,0.00,,,0.00,WUHU216HW,2013-02-22 02:22:00,
2013-02-21 19:27:00,26.1,19.8,29.65,NNE,23,0.0,0.0,77,0.00,,,0.00,WUHU216HW,2013-02-22 02:27:00,
2013-02-21 19:32:00,25.9,19.4,29.64,NNW,338,0.0,0.0,76,0.00,,,0.00,WUHU216HW,2013-02-22 02:32:00,
2013-02-21 19:37:00,25.7,19.5,29.65,South,180,0.0,0.2,77,0.00,,,0.00,WUHU216HW,2013-02-22 02:37:00,
2013-02-21 19:42:00,25.7,19.2,29.65,South,180,0.0,0.9,76,0.00,,,0.00,WUHU216HW,2013-02-22 02:42:00,
2013-02-21 19:47:00,25.7,19.2,29.65,NE,45,1.1,1.1,76,0.00,,,0.00,WUHU216HW,2013-02-22 02:47:00,
2013-02-21 19:52:00,25.7,18.8,29.65,SSE,158,0.2,1.1,75,0.00,,,0.00,WUHU216HW,2013-02-22 02:52:00,
2013-02-21 19:57:00,25.7,19.2,29.65,NE,45,0.4,0.9,76,0.00,,,0.00,WUHU216HW,2013-02-22 02:57:00,
2013-02-21 20:02:00,25.7,19.2,29.65,NE,45,0.0,0.4,76,0.00,,,0.00,WUHU216HW,2013-02-22 03:02:00,
2013-02-21 20:07:00,25.7,18.5,29.65,SSW,203,0.2,1.1,74,0.00,,,0.00,WUHU216HW,2013-02-22 03:07:00,
2013-02-21 20:12:00,25.6,18.7,29.65,SSE,158,0.2,1.1,75,0.00,,,0.00,WUHU216HW,2013-02-22 03:12:00,
2013-02-21 20:17:00,25.6,19.0,29.66,SW,225,0.0,0.4,76,0.00,,,0.00,WUHU216HW,2013-02-22 03:17:00,
2013-02-21 20:22:00,25.6,18.1,29.66,ESE,113,1.1,1.1,73,0.00,,,0.00,WUHU216HW,2013-02-22 03:22:00,
2013-02-21 20:27:00,25.6,18.4,29.66,WSW,248,0.4,1.1,74,0.00,,,0.00,WUHU216HW,2013-02-22 03:27:00,
2013-02-21 20:32:00,25.6,18.7,29.66,WSW,248,0.0,1.1,75,0.00,,,0.00,WUHU216HW,2013-02-22 03:32:00,
2013-02-21 20:37:00,25.6,18.4,29.66,North,0,0.4,2.0,74,0.00,,,0.00,WUHU216HW,2013-02-22 03:37:00,
2013-02-21 20:42:00,25.7,18.8,29.66,East,90,0.0,2.0,75,0.00,,,0.00,WUHU216HW,2013-02-22 03:42:00,
2013-02-21 20:47:00,25.7,18.8,29.66,North,0,0.0,1.1,75,0.00,,,0.00,WUHU216HW,2013-02-22 03:47:00,
2013-02-21 20:52:00,25.9,19.0,29.66,SE,135,1.3,1.3,75,0.00,,,0.00,WUHU216HW,2013-02-22 03:52:00,
2013-02-21 20:57:00,25.7,19.2,29.66,WSW,248,0.0,1.3,76,0.00,,,0.00,WUHU216HW,2013-02-22 03:57:00,
2013-02-21 21:02:00,25.7,18.8,29.66,WSW,248,0.0,0.0,75,0.00,,,0.00,WUHU216HW,2013-02-22 04:02:00,
2013-02-21 21:07:00,25.7,19.2,29.66,WSW,248,0.0,0.0,76,0.00,,,0.00,WUHU216HW,2013-02-22 04:07:00,
2013-02-21 21:12:00,25.6,19.0,29.66,WSW,248,0.0,0.0,76,0.00,,,0.00,WUHU216HW,2013-02-22 04:12:00,
2013-02-21 21:17:00,25.6,19.0,29.66,WSW,248,0.0,0.0,76,0.00,,,0.00,WUHU216HW,2013-02-22 04:17:00,
2013-02-21 21:22:00,25.6,19.0,29.67,WSW,248,0.0,0.0,76,0.00,,,0.00,WUHU216HW,2013-02-22 04:22:00,
2013-02-21 21:27:00,25.6,18.7,29.66,NE,45,0.0,0.4,75,0.00,,,0.00,WUHU216HW,2013-02-22 04:27:00,
2013-02-21 21:32:00,25.6,19.0,29.66,NE,45,0.0,0.4,76,0.00,,,0.00,WUHU216HW,2013-02-22 04:32:00,
2013-02-21 21:37:00,25.4,18.8,29.66,NE,45,0.0,0.0,76,0.00,,,0.00,WUHU216HW,2013-02-22 04:37:00,
2013-02-21 21:42:00,25.2,18.6,29.66,NE,45,0.0,0.0,76,0.00,,,0.00,WUHU216HW,2013-02-22 04:42:00,
2013-02-21 21:47:00,25.0,18.5,29.66,West,270,0.0,0.0,76,0.00,,,0.00,WUHU216HW,2013-02-22 04:47:00,
2013-02-21 21:52:00,24.8,18.4,29.66,South,180,0.2,0.2,76,0.00,,,0.00,WUHU216HW,2013-02-22 04:52:00,
2013-02-21 21:57:00,24.8,18.0,29.66,NE,45,0.4,1.1,75,0.00,,,0.00,WUHU216HW,2013-02-22 04:57:00,
2013-02-21 22:00:00,24.8,18.0,29.66,West,270,0.0,1.1,75,0.00,,,0.00,WUHU216HW,2013-02-22 05:00:00,
2013-02-21 22:05:00,24.7,17.8,29.66,WSW,248,0.0,0.4,75,0.00,,,0.00,WUHU216HW,2013-02-22 05:05:00,
2013-02-21 22:10:00,24.7,17.8,29.66,South,180,0.0,0.4,75,0.00,,,0.00,WUHU216HW,2013-02-22 05:10:00,
2013-02-21 22:15:00,24.5,18.0,29.66,West,270,0.0,0.4,76,0.00,,,0.00,WUHU216HW,2013-02-22 05:15:00,
2013-02-21 22:20:00,24.1,17.7,29.66,West,270,0.0,0.9,76,0.00,,,0.00,WUHU216HW,2013-02-22 05:20:00,
2013-02-21 22:25:00,24.1,17.7,29.66,NNW,338,0.0,0.9,76,0.00,,,0.00,WUHU216HW,2013-02-22 05:25:00,
2013-02-21 22:30:00,23.8,17.7,29.67,NNW,338,0.0,0.4,77,0.00,,,0.00,WUHU216HW,2013-02-22 05:30:00,
2013-02-21 22:35:00,23.8,17.7,29.67,NNW,338,0.0,0.0,77,0.00,,,0.00,WUHU216HW,2013-02-22 05:35:00,
2013-02-21 22:40:00,23.8,17.3,29.67,NNW,338,0.0,0.0,76,0.00,,,0.00,WUHU216HW,2013-02-22 05:40:00,
2013-02-21 22:45:00,23.9,17.5,29.67,NNW,338,0.0,0.0,76,0.00,,,0.00,WUHU216HW,2013-02-22 05:45:00,
2013-02-21 22:50:00,24.1,17.3,29.67,NNW,338,0.0,0.2,75,0.00,,,0.00,WUHU216HW,2013-02-22 05:50:00,
2013-02-21 22:55:00,24.1,17.3,29.67,NNW,338,0.0,0.2,75,0.00,,,0.00,WUHU216HW,2013-02-22 05:55:00,
2013-02-21 23:00:00,24.3,17.5,29.67,NNW,338,0.0,0.0,75,0.00,,,0.00,WUHU216HW,2013-02-22 06:00:00,
2013-02-21 23:05:00,24.5,17.6,29.68,NNW,338,0.0,0.0,75,0.00,,,0.00,WUHU216HW,2013-02-22 06:05:00,
2013-02-21 23:10:00,24.5,17.6,29.68,NNW,338,0.0,0.0,75,0.00,,,0.00,WUHU216HW,2013-02-22 06:10:00,
2013-02-21 23:15:00,24.3,17.5,29.67,South,180,0.0,0.4,75,0.00,,,0.00,WUHU216HW,2013-02-22 06:15:00,
2013-02-21 23:20:00,24.1,17.3,29.67,South,180,0.0,0.4,75,0.00,,,0.00,WUHU216HW,2013-02-22 06:20:00,
2013-02-21 23:25:00,24.1,17.3,29.67,South,180,0.0,0.0,75,0.00,,,0.00,WUHU216HW,2013-02-22 06:25:00,
2013-02-21 23:30:00,24.1,17.7,29.67,SSW,203,0.0,0.0,76,0.00,,,0.00,WUHU216HW,2013-02-22 06:30:00,
2013-02-21 23:35:00,24.1,17.3,29.67,SSW,203,0.0,0.2,75,0.00,,,0.00,WUHU216HW,2013-02-22 06:35:00,
2013-02-21 23:40:00,23.9,17.1,29.67,SW,225,0.0,0.2,75,0.00,,,0.00,WUHU216HW,2013-02-22 06:40:00,
2013-02-21 23:45:00,23.9,17.1,29.66,North,0,0.0,1.1,75,0.00,,,0.00,WUHU216HW,2013-02-22 06:45:00,
2013-02-21 23:50:00,23.8,17.0,29.66,North,0,0.0,1.1,75,0.00,,,0.00,WUHU216HW,2013-02-22 06:50:00,
2013-02-21 23:55:00,23.8,17.0,29.66,North,0,0.0,0.0,75,0.00,,,0.00,WUHU216HW,2013-02-22 06:55:00,